Weather History for KCNK - October, 2012

Change the Weather History Date:

Friday, October 19, 2012

  Actual Average Record
Temperature  
Mean Temperature 53 °F 54 °F  
Max Temperature 62 °F 66 °F 87 °F (1903)
Min Temperature 43 °F 43 °F 17 °F (1972)
Degree Days  
Heating Degree Days 12 11  
Month to date heating degree days 197 158  
Since 1 July heating degree days 274 231  
Cooling Degree Days 0 0  
Month to date cooling degree days 2 20  
Year to date cooling degree days 1642 1346  
Growing Degree Days 3 (Base 50)    
Moisture  
Dew Point 33 °F    
Average Humidity 53    
Maximum Humidity 70    
Minimum Humidity 36    
Precipitation  
Precipitation 0.00 in 0.07 in 1.25 in (1929)
Month to date precipitation 2.94 1.27  
Year to date precipitation 22.27 25.28  
Snow  
Snow 0.00 in 0.00 in T in (1976)
Month to date snowfall 0.0 0.0  
Year to date snowfall 5.8 13.7  
Since 1 July snowfall 0.0 0.0  
Snow Depth 0.00 in    
Sea Level Pressure  
Sea Level Pressure 29.82 in    
Wind  
Wind Speed 12 mph (NW)    
Max Wind Speed 29 mph    
Max Gust Speed 39 mph    
Visibility 10 miles    
Events      
T = Trace of Precipitation, MM = Missing Value Source: NWS Daily Summary

Daily Weather History Graph

Daily Weather History Graph

Search for Another Location

Airport or City:

Trip Planner

Search our weather history database for the weather conditions in past years. The results will help you decide how hot, cold, wet, or windy it might be!

Date:

Astronomy

Oct. 19, 2012 Rise Set
Actual Time 7:45 AM CDT 6:44 PM CDT
Civil Twilight 7:18 AM CDT 7:12 PM CDT
Nautical Twilight 6:46 AM CDT 7:43 PM CDT
Astronomical Twilight 6:15 AM CDT 8:14 PM CDT
Moon 12:28 PM CDT (10/19) 10:25 PM CDT (10/19)
Length of Visible Light 11h 54m
Length of Day
10h 59m
Waxing Crescent, 24% of the Moon is Illuminated
Oct 19
Waxing Crescent
Oct 21
First Quarter
Oct 29
Full
Nov 6
Last Quarter
Nov 13
New

Hourly Weather History & Observations

Time (CDT) Temp. Windchill Dew Point Humidity Pressure Visibility Wind Dir Wind Speed Gust Speed Precip Events Conditions
12:55 AM 50.0 °F - 30.9 °F 48% 29.78 in 10.0 mi NW 17.3 mph 27.6 mph N/A   Clear
1:55 AM 48.9 °F - 30.9 °F 50% 29.78 in 10.0 mi NNW 17.3 mph - N/A   Clear
2:55 AM 48.0 °F - 30.9 °F 52% 29.80 in 10.0 mi NW 18.4 mph 28.8 mph N/A   Overcast
3:55 AM 48.9 °F - 30.9 °F 50% 29.79 in 10.0 mi NW 21.9 mph 29.9 mph N/A   Overcast
4:55 AM 48.0 °F - 30.0 °F 50% 29.79 in 10.0 mi NW 20.7 mph 36.8 mph N/A   Overcast
5:55 AM 46.0 °F 39.6 °F 30.0 °F 54% 29.81 in 10.0 mi NW 15.0 mph 32.2 mph N/A   Scattered Clouds
6:55 AM 45.0 °F 38.2 °F 30.0 °F 56% 29.83 in 10.0 mi NW 15.0 mph 26.5 mph N/A   Mostly Cloudy
7:55 AM 44.1 °F 37.4 °F 30.0 °F 58% 29.84 in 10.0 mi NW 13.8 mph 21.9 mph N/A   Mostly Cloudy
8:55 AM 44.1 °F 36.5 °F 30.9 °F 60% 29.86 in 10.0 mi NW 17.3 mph 24.2 mph N/A   Mostly Cloudy
9:55 AM 46.9 °F - 32.0 °F 56% 29.87 in 10.0 mi NNW 23.0 mph 31.1 mph N/A   Clear
10:55 AM 48.9 °F - 33.1 °F 54% 29.88 in 10.0 mi NW 19.6 mph 29.9 mph N/A   Clear
11:55 AM 52.0 °F - 34.0 °F 50% 29.88 in 10.0 mi NNW 20.7 mph 28.8 mph N/A   Partly Cloudy
12:55 PM 54.0 °F - 35.1 °F 49% 29.87 in 10.0 mi NNW 13.8 mph 24.2 mph N/A   Partly Cloudy
1:55 PM 57.9 °F - 35.1 °F 42% 29.84 in 10.0 mi WNW 13.8 mph 20.7 mph N/A   Clear
2:55 PM 59.0 °F - 35.1 °F 41% 29.82 in 10.0 mi NW 12.7 mph 23.0 mph N/A   Clear
3:55 PM 62.6 °F - 35.6 °F 37% 29.81 in 10.0 mi NW 11.5 mph - N/A   Clear
4:55 PM 61.0 °F - 36.0 °F 39% 29.80 in 10.0 mi NW 11.5 mph - N/A   Clear
5:55 PM 61.0 °F - 34.0 °F 36% 29.80 in 10.0 mi NW 8.1 mph - N/A   Clear
6:55 PM 57.0 °F - 35.1 °F 44% 29.81 in 10.0 mi North 4.6 mph - N/A   Clear
7:55 PM 53.1 °F - 35.1 °F 50% 29.82 in 10.0 mi Calm Calm - N/A   Clear
8:55 PM 48.9 °F - 35.1 °F 59% 29.82 in 10.0 mi Calm Calm - N/A   Clear
9:55 PM 46.9 °F - 35.1 °F 63% 29.82 in 10.0 mi SE 4.6 mph - N/A   Clear
10:55 PM 46.9 °F - 35.1 °F 63% 29.82 in 10.0 mi SSE 3.5 mph - N/A   Clear
11:55 PM 44.1 °F 41.5 °F 36.0 °F 73% 29.81 in 10.0 mi SE 4.6 mph - N/A   Clear